Time,TemperatureF,DewpointF,PressureIn,WindDirection,WindDirectionDegrees,WindSpeedMPH,WindSpeedGustMPH,Humidity,HourlyPrecipIn,Conditions,Clouds,dailyrainin,SolarRadiationWatts/m^2,SoftwareType,DateUTC
2014-01-10 00:12:00,33.0,13.0,-100.00,WSW,258,4.0,10.0,43,0.00,,,0.00,0.000000,,2014-01-10 07:12:00,
2014-01-10 00:21:00,33.0,13.0,-100.00,WSW,258,4.0,10.0,43,0.00,,,0.00,0.000000,,2014-01-10 07:21:00,
2014-01-10 00:32:00,33.0,13.0,-100.00,WSW,258,4.0,10.0,43,0.00,,,0.00,0.000000,,2014-01-10 07:32:00,
2014-01-10 01:11:00,33.0,10.0,-100.00,West,263,9.0,14.0,38,0.00,,,0.00,0.000000,,2014-01-10 08:11:00,
2014-01-10 01:21:00,33.0,10.0,-100.00,West,263,9.0,14.0,38,0.00,,,0.00,0.000000,,2014-01-10 08:21:00,
2014-01-10 01:32:00,33.0,10.0,-100.00,West,263,9.0,14.0,38,0.00,,,0.00,0.000000,,2014-01-10 08:32:00,
2014-01-10 02:11:00,33.0,4.0,-100.00,West,263,10.0,19.0,29,0.00,,,0.00,0.000000,,2014-01-10 09:11:00,
2014-01-10 02:21:00,33.0,4.0,-100.00,West,263,10.0,19.0,29,0.00,,,0.00,0.000000,,2014-01-10 09:21:00,
2014-01-10 02:33:00,33.0,4.0,-100.00,West,263,10.0,19.0,29,0.00,,,0.00,0.000000,,2014-01-10 09:33:00,
2014-01-10 03:13:00,33.0,4.0,-100.00,West,273,9.0,17.0,29,0.00,,,0.00,0.000000,,2014-01-10 10:13:00,
2014-01-10 03:23:00,33.0,4.0,-100.00,West,273,9.0,17.0,29,0.00,,,0.00,0.000000,,2014-01-10 10:23:00,
2014-01-10 03:33:00,33.0,4.0,-100.00,West,273,9.0,17.0,29,0.00,,,0.00,0.000000,,2014-01-10 10:33:00,
2014-01-10 04:11:00,33.0,10.0,-100.00,West,265,10.0,15.0,37,0.00,,,0.00,0.000000,,2014-01-10 11:11:00,
2014-01-10 04:22:00,33.0,10.0,-100.00,West,265,10.0,15.0,37,0.00,,,0.00,0.000000,,2014-01-10 11:22:00,
2014-01-10 04:32:00,33.0,10.0,-100.00,West,265,10.0,15.0,37,0.00,,,0.00,0.000000,,2014-01-10 11:32:00,
2014-01-10 05:11:00,33.0,8.0,-100.00,WNW,288,4.0,14.0,34,0.00,,,0.00,0.000000,,2014-01-10 12:11:00,
2014-01-10 05:21:00,33.0,8.0,-100.00,WNW,288,4.0,14.0,34,0.00,,,0.00,0.000000,,2014-01-10 12:21:00,
2014-01-10 05:32:00,33.0,8.0,-100.00,WNW,288,4.0,14.0,34,0.00,,,0.00,0.000000,,2014-01-10 12:32:00,
2014-01-10 08:11:00,38.0,8.0,-100.00,NNW,337,6.0,13.0,28,-99.99,,,0.00,3.000000,,2014-01-10 15:11:00,
2014-01-10 08:21:00,38.0,8.0,-100.00,NNW,337,6.0,13.0,28,-99.99,,,0.00,3.000000,,2014-01-10 15:21:00,
2014-01-10 08:33:00,38.0,8.0,-100.00,NNW,337,6.0,13.0,28,-99.99,,,0.00,3.000000,,2014-01-10 15:33:00,
2014-01-10 09:13:00,42.0,11.0,-100.00,NW,324,7.0,18.0,28,0.00,,,0.00,146.000000,,2014-01-10 16:13:00,
2014-01-10 09:23:00,42.0,11.0,-100.00,NW,324,7.0,18.0,28,0.00,,,0.00,146.000000,,2014-01-10 16:23:00,
2014-01-10 09:33:00,42.0,11.0,-100.00,NW,324,7.0,18.0,28,0.00,,,0.00,146.000000,,2014-01-10 16:33:00,
2014-01-10 10:12:00,47.0,14.0,-100.00,West,262,5.0,16.0,26,0.00,,,0.00,405.000000,,2014-01-10 17:12:00,
2014-01-10 10:22:00,47.0,14.0,-100.00,West,262,5.0,16.0,26,0.00,,,0.00,405.000000,,2014-01-10 17:22:00,
2014-01-10 10:32:00,47.0,14.0,-100.00,West,262,5.0,16.0,26,0.00,,,0.00,405.000000,,2014-01-10 17:32:00,
2014-01-10 12:12:00,53.0,18.0,-100.00,SSW,204,3.0,10.0,25,0.00,,,0.00,669.000000,,2014-01-10 19:12:00,
2014-01-10 12:21:00,53.0,18.0,-100.00,SSW,204,3.0,10.0,25,0.00,,,0.00,669.000000,,2014-01-10 19:21:00,
2014-01-10 12:32:00,53.0,18.0,-100.00,SSW,204,3.0,10.0,25,0.00,,,0.00,669.000000,,2014-01-10 19:32:00,
2014-01-10 13:11:00,53.0,17.0,-100.00,South,172,3.0,9.0,24,0.00,,,0.00,851.000000,,2014-01-10 20:11:00,
2014-01-10 13:22:00,53.0,17.0,-100.00,South,172,3.0,9.0,24,0.00,,,0.00,851.000000,,2014-01-10 20:22:00,
2014-01-10 13:32:00,53.0,17.0,-100.00,South,172,3.0,9.0,24,0.00,,,0.00,851.000000,,2014-01-10 20:32:00,
2014-01-10 14:12:00,55.0,21.0,-100.00,SW,230,3.0,18.0,26,0.00,,,0.00,846.000000,,2014-01-10 21:12:00,
2014-01-10 14:21:00,55.0,21.0,-100.00,SW,230,3.0,18.0,26,0.00,,,0.00,846.000000,,2014-01-10 21:21:00,
2014-01-10 14:33:00,55.0,21.0,-100.00,SW,230,3.0,18.0,26,0.00,,,0.00,846.000000,,2014-01-10 21:33:00,
2014-01-10 15:12:00,54.0,17.0,-100.00,NNW,332,5.0,14.0,23,0.00,,,0.00,759.000000,,2014-01-10 22:12:00,
2014-01-10 15:22:00,54.0,17.0,-100.00,NNW,332,5.0,14.0,23,0.00,,,0.00,759.000000,,2014-01-10 22:22:00,
2014-01-10 15:33:00,54.0,17.0,-100.00,NNW,332,5.0,14.0,23,0.00,,,0.00,759.000000,,2014-01-10 22:33:00,
2014-01-10 16:12:00,51.0,17.0,-100.00,NNE,27,6.0,14.0,26,0.00,,,0.00,597.000000,,2014-01-10 23:12:00,
2014-01-10 16:22:00,51.0,17.0,-100.00,NNE,27,6.0,14.0,26,0.00,,,0.00,597.000000,,2014-01-10 23:22:00,
2014-01-10 16:33:00,51.0,17.0,-100.00,NNE,27,6.0,14.0,26,0.00,,,0.00,597.000000,,2014-01-10 23:33:00,
2014-01-10 17:12:00,49.0,14.0,-100.00,WNW,299,5.0,19.0,24,0.00,,,0.00,368.000000,,2014-01-11 00:12:00,
2014-01-10 17:21:00,49.0,14.0,-100.00,WNW,299,5.0,19.0,24,0.00,,,0.00,368.000000,,2014-01-11 00:21:00,
2014-01-10 17:32:00,49.0,14.0,-100.00,WNW,299,5.0,19.0,24,0.00,,,0.00,368.000000,,2014-01-11 00:32:00,
2014-01-10 18:11:00,44.0,13.0,-100.00,NNW,336,7.0,21.0,28,0.00,,,0.00,80.000000,,2014-01-11 01:11:00,
2014-01-10 18:22:00,44.0,13.0,-100.00,NNW,336,7.0,21.0,28,0.00,,,0.00,80.000000,,2014-01-11 01:22:00,
2014-01-10 18:32:00,44.0,13.0,-100.00,NNW,336,7.0,21.0,28,0.00,,,0.00,80.000000,,2014-01-11 01:32:00,
2014-01-10 19:11:00,42.0,13.0,-100.00,NNW,346,9.0,19.0,30,0.00,,,0.00,1.000000,,2014-01-11 02:11:00,
2014-01-10 19:21:00,42.0,13.0,-100.00,NNW,346,9.0,19.0,30,0.00,,,0.00,1.000000,,2014-01-11 02:21:00,
2014-01-10 19:32:00,42.0,13.0,-100.00,NNW,346,9.0,19.0,30,0.00,,,0.00,1.000000,,2014-01-11 02:32:00,
2014-01-10 20:11:00,43.0,13.0,-100.00,NNW,330,4.0,15.0,29,0.00,,,0.00,0.000000,,2014-01-11 03:11:00,
2014-01-10 20:22:00,43.0,13.0,-100.00,NNW,330,4.0,15.0,29,0.00,,,0.00,0.000000,,2014-01-11 03:22:00,
2014-01-10 20:33:00,43.0,13.0,-100.00,NNW,330,4.0,15.0,29,0.00,,,0.00,0.000000,,2014-01-11 03:33:00,
2014-01-10 21:13:00,44.0,13.0,-100.00,NW,326,7.0,15.0,28,0.00,,,0.00,0.000000,,2014-01-11 04:13:00,
2014-01-10 21:23:00,44.0,13.0,-100.00,NW,326,7.0,15.0,28,0.00,,,0.00,0.000000,,2014-01-11 04:23:00,
2014-01-10 21:33:00,44.0,13.0,-100.00,NW,326,7.0,15.0,28,0.00,,,0.00,0.000000,,2014-01-11 04:33:00,
2014-01-10 22:12:00,45.0,13.0,-100.00,NNW,345,7.0,16.0,27,0.00,,,0.00,0.000000,,2014-01-11 05:12:00,
2014-01-10 22:22:00,45.0,13.0,-100.00,NNW,345,7.0,16.0,27,0.00,,,0.00,0.000000,,2014-01-11 05:22:00,
2014-01-10 22:32:00,45.0,13.0,-100.00,NNW,345,7.0,16.0,27,0.00,,,0.00,0.000000,,2014-01-11 05:32:00,
2014-01-10 23:12:00,46.0,12.0,-100.00,NW,315,8.0,14.0,25,0.00,,,0.00,0.000000,,2014-01-11 06:12:00,
2014-01-10 23:22:00,46.0,12.0,-100.00,NW,315,8.0,14.0,25,0.00,,,0.00,0.000000,,2014-01-11 06:22:00,
2014-01-10 23:32:00,46.0,12.0,-100.00,NW,315,8.0,14.0,25,0.00,,,0.00,0.000000,,2014-01-11 06:32:00,